Location: Le Rocchette
(44.3500°N, 7.8333°E)
Time: 03:40:28
(UTC+00:00)

Cosmos 1680 Rocket - Pass Details

Date: 17 November 2019
Orbit: 759 x 782 km, 74.1° (Epoch: 06 December)

Event Time Altitude Azimuth Distance (km) Brightness Sun altitude
Exits shadow 04:40:19 27° 241° (WSW) 1,451 4.5 -18.9°
Drops below altitude 10° 04:43:51 10° 201° (SSW) 2,328 5.9 -18.3°
Sets 04:46:29 0° 191° (S) 3,252 6.7 -17.8°
